TimeEST,TemperatureF,Dew PointF,Humidity,Sea Level PressureIn,VisibilityMPH,Wind Direction,Wind SpeedMPH,Gust SpeedMPH,PrecipitationIn,Events,Conditions,WindDirDegrees,DateUTC
12:15 AM,53.6,53.6,100,29.76,10.0,NW,10.4,-,N/A,,Overcast,310,2013-02-08 05:15:00
12:35 AM,53.6,51.8,94,29.77,7.0,WNW,13.8,-,N/A,,Overcast,300,2013-02-08 05:35:00
12:55 AM,51.8,51.8,100,29.78,7.0,NW,12.7,-,N/A,,Overcast,310,2013-02-08 05:55:00
1:15 AM,51.8,50.0,94,29.78,10.0,NW,11.5,-,N/A,,Overcast,310,2013-02-08 06:15:00
1:35 AM,51.8,50.0,94,29.79,7.0,WNW,13.8,18.4,N/A,,Overcast,300,2013-02-08 06:35:00
1:55 AM,51.8,50.0,94,29.80,7.0,NW,11.5,16.1,N/A,,Overcast,310,2013-02-08 06:55:00
2:15 AM,51.8,50.0,94,29.81,7.0,WNW,12.7,17.3,N/A,,Overcast,300,2013-02-08 07:15:00
2:35 AM,51.8,48.2,88,29.82,7.0,NW,16.1,19.6,N/A,,Overcast,310,2013-02-08 07:35:00
2:55 AM,50.0,48.2,94,29.82,5.0,NW,10.4,17.3,N/A,,Overcast,310,2013-02-08 07:55:00
3:15 AM,50.0,48.2,94,29.82,7.0,NW,13.8,17.3,N/A,,Overcast,310,2013-02-08 08:15:00
3:35 AM,50.0,46.4,87,29.83,7.0,NW,13.8,20.7,N/A,,Overcast,310,2013-02-08 08:35:00
3:55 AM,50.0,46.4,87,29.83,7.0,NW,12.7,16.1,N/A,,Overcast,310,2013-02-08 08:55:00
4:15 AM,50.0,46.4,87,29.84,10.0,NW,13.8,20.7,N/A,,Overcast,310,2013-02-08 09:15:00
4:55 AM,50.0,46.4,87,29.86,7.0,NW,11.5,20.7,N/A,,Overcast,320,2013-02-08 09:55:00
5:15 AM,50.0,46.4,87,29.87,7.0,NW,15.0,-,N/A,,Overcast,320,2013-02-08 10:15:00
5:35 AM,50.0,46.4,87,29.88,7.0,NW,10.4,-,N/A,,Overcast,310,2013-02-08 10:35:00
5:55 AM,50.0,46.4,87,29.88,7.0,NW,9.2,18.4,N/A,,Overcast,310,2013-02-08 10:55:00
6:15 AM,50.0,46.4,87,29.89,7.0,NW,13.8,19.6,N/A,,Overcast,310,2013-02-08 11:15:00
6:35 AM,50.0,44.6,82,29.90,7.0,NW,10.4,-,N/A,,Overcast,310,2013-02-08 11:35:00
6:55 AM,48.2,44.6,87,29.91,7.0,NW,9.2,-,N/A,,Overcast,310,2013-02-08 11:55:00
7:15 AM,48.2,44.6,87,29.92,7.0,WNW,9.2,-,N/A,,Overcast,300,2013-02-08 12:15:00
7:35 AM,48.2,44.6,87,29.93,7.0,WNW,11.5,-,N/A,,Overcast,300,2013-02-08 12:35:00
7:55 AM,50.0,44.6,82,29.94,5.0,WNW,11.5,-,N/A,,Overcast,290,2013-02-08 12:55:00
8:15 AM,50.0,44.6,82,29.95,7.0,WNW,9.2,-,N/A,,Overcast,290,2013-02-08 13:15:00
8:35 AM,50.0,44.6,82,29.96,7.0,WNW,8.1,-,N/A,,Mostly Cloudy,290,2013-02-08 13:35:00
8:55 AM,51.8,44.6,76,29.96,7.0,WNW,8.1,-,N/A,,Scattered Clouds,290,2013-02-08 13:55:00
9:15 AM,51.8,44.6,76,29.96,7.0,WNW,9.2,-,N/A,,Mostly Cloudy,290,2013-02-08 14:15:00
9:35 AM,51.8,44.6,76,29.97,7.0,WNW,8.1,-,N/A,,Mostly Cloudy,300,2013-02-08 14:35:00
9:55 AM,51.8,44.6,76,29.97,7.0,NW,9.2,-,N/A,,Scattered Clouds,310,2013-02-08 14:55:00
10:15 AM,53.6,44.6,72,29.98,5.0,WNW,9.2,-,N/A,,Haze,290,2013-02-08 15:15:00
10:35 AM,53.6,44.6,72,29.98,7.0,NW,5.8,-,N/A,,Scattered Clouds,310,2013-02-08 15:35:00
10:55 AM,55.4,44.6,67,29.98,7.0,WNW,3.5,-,N/A,,Scattered Clouds,300,2013-02-08 15:55:00
11:15 AM,55.4,44.6,67,29.98,7.0,WNW,6.9,-,N/A,,Scattered Clouds,300,2013-02-08 16:15:00
11:35 AM,55.4,44.6,67,29.96,7.0,NW,6.9,-,N/A,,Scattered Clouds,310,2013-02-08 16:35:00
11:55 AM,59.0,44.6,59,29.96,7.0,WNW,8.1,-,N/A,,Clear,300,2013-02-08 16:55:00
12:15 PM,59.0,46.4,63,29.96,7.0,WNW,4.6,-,N/A,,Clear,290,2013-02-08 17:15:00
12:35 PM,60.8,46.4,59,29.96,7.0,West,5.8,-,N/A,,Scattered Clouds,270,2013-02-08 17:35:00
12:55 PM,60.8,46.4,59,29.96,7.0,WSW,5.8,-,N/A,,Scattered Clouds,240,2013-02-08 17:55:00
1:15 PM,60.8,46.4,59,29.94,10.0,West,9.2,-,N/A,,Scattered Clouds,280,2013-02-08 18:15:00
1:35 PM,62.6,46.4,55,29.94,10.0,WSW,9.2,-,N/A,,Clear,240,2013-02-08 18:35:00
1:55 PM,62.6,46.4,55,29.94,7.0,West,9.2,-,N/A,,Scattered Clouds,260,2013-02-08 18:55:00
2:15 PM,64.4,46.4,52,29.94,10.0,West,6.9,-,N/A,,Clear,260,2013-02-08 19:15:00
2:35 PM,64.4,46.4,52,29.94,10.0,WSW,8.1,-,N/A,,Clear,240,2013-02-08 19:35:00
2:55 PM,64.4,46.4,52,29.93,7.0,West,11.5,16.1,N/A,,Clear,280,2013-02-08 19:55:00
3:15 PM,64.4,46.4,52,29.93,10.0,West,12.7,-,N/A,,Clear,270,2013-02-08 20:15:00
3:35 PM,64.4,46.4,52,29.93,7.0,West,9.2,17.3,N/A,,Clear,270,2013-02-08 20:35:00
3:55 PM,66.2,46.4,49,29.93,7.0,West,12.7,-,N/A,,Scattered Clouds,260,2013-02-08 20:55:00
4:15 PM,64.4,46.4,52,29.93,7.0,West,9.2,-,N/A,,Scattered Clouds,260,2013-02-08 21:15:00
4:35 PM,64.4,46.4,52,29.93,7.0,West,12.7,-,N/A,,Clear,260,2013-02-08 21:35:00
4:55 PM,62.6,46.4,55,29.94,7.0,West,12.7,-,N/A,,Clear,260,2013-02-08 21:55:00
5:15 PM,62.6,46.4,55,29.95,7.0,West,11.5,-,N/A,,Clear,270,2013-02-08 22:15:00
5:35 PM,60.8,46.4,59,29.96,7.0,West,10.4,-,N/A,,Clear,270,2013-02-08 22:35:00
5:55 PM,60.8,46.4,59,29.96,7.0,West,9.2,-,N/A,,Clear,280,2013-02-08 22:55:00
6:15 PM,59.0,46.4,63,29.96,7.0,WNW,6.9,-,N/A,,Clear,290,2013-02-08 23:15:00
6:55 PM,59.0,46.4,63,29.97,7.0,West,6.9,-,N/A,,Clear,260,2013-02-08 23:55:00
7:15 PM,59.0,46.4,63,29.98,7.0,West,9.2,-,N/A,,Clear,260,2013-02-09 00:15:00
7:55 PM,59.0,48.2,67,30.01,10.0,West,6.9,-,N/A,,Mostly Cloudy,260,2013-02-09 00:55:00
8:15 PM,59.0,48.2,67,30.01,10.0,WSW,5.8,-,N/A,,Overcast,250,2013-02-09 01:15:00
8:35 PM,59.0,48.2,67,30.02,7.0,West,4.6,-,N/A,,Overcast,260,2013-02-09 01:35:00
8:55 PM,59.0,48.2,67,30.03,10.0,West,6.9,-,N/A,,Overcast,260,2013-02-09 01:55:00
9:15 PM,59.0,48.2,67,30.03,10.0,West,6.9,-,N/A,,Mostly Cloudy,260,2013-02-09 02:15:00
9:35 PM,57.2,48.2,72,30.04,7.0,West,6.9,-,N/A,,Clear,270,2013-02-09 02:35:00
9:55 PM,57.2,48.2,72,30.04,7.0,West,6.9,-,N/A,,Clear,260,2013-02-09 02:55:00
10:15 PM,55.4,48.2,77,30.05,10.0,West,5.8,-,N/A,,Clear,270,2013-02-09 03:15:00
10:35 PM,55.4,48.2,77,30.05,7.0,West,4.6,-,N/A,,Clear,280,2013-02-09 03:35:00
10:55 PM,55.4,48.2,77,30.06,7.0,WNW,4.6,-,N/A,,Clear,290,2013-02-09 03:55:00
11:15 PM,55.4,48.2,77,30.06,7.0,West,4.6,-,N/A,,Clear,280,2013-02-09 04:15:00
11:35 PM,53.6,48.2,82,30.07,7.0,WNW,6.9,-,N/A,,Clear,300,2013-02-09 04:35:00
11:55 PM,53.6,48.2,82,30.07,10.0,NW,8.1,-,N/A,,Clear,310,2013-02-09 04:55:00